• Join FlightAware (Why Join?)
  • Login
  • US Flag 
12:20PM EDT


 

Airport Tracker/Info


-or-


 

Live Flight TrackerFlight Track Log ✈ DAL6140 ✈ 25-Apr-2013 ✈ CYUL - KLGA

Flight Track Log - Related Links

Times and Time Zones

All times are in EDT time to prevent confusion due to time zone crossing. See the DAL6140 flight status page for this flight to view local times or setup timezone preferences in your user account.

Time Position Orientation Groundspeed Altitude Reporting Facility
EDT Latitude Longitude Course Direction KTS MPH feet Rate Location/Type
06:40PM 45.4167 -73.7667 226° Southwest 210 242 3,100  Level Montreal Center
06:41PM 45.3500 -73.8167 208° Southwest 240 276 5,800 2,760 Climbing Montreal Center
06:42PM 45.2833 -73.8500 199° South 260 299 8,700 2,880 Climbing Montreal Center
06:43PM 45.2167 -73.9000 208° Southwest 270 311 11,600 2,400 Climbing Montreal Center
06:44PM 45.1333 -73.9000 180° South 300 345 13,500 1,800 Climbing Montreal Center
06:45PM 44.9414 -74.0852 189° South  Level FlightAware Approximate
06:45PM 45.0333 -73.8833 173° South 330 380 15,200  Level Montreal Center
06:46PM 44.9500 -73.8833 180° South 340 391 16,700 1,260 Climbing Montreal Center
06:47PM 44.8500 -73.8833 180° South 350 403 17,800 1,320 Climbing Montreal Center
06:48PM 44.7500 -73.8667 173° South 360 414 19,400 1,500 Climbing Montreal Center
06:49PM 44.6500 -73.8667 180° South 370 426 20,800 1,500 Climbing Montreal Center
06:50PM 44.5333 -73.8833 186° South 370 426 22,400 1,620 Climbing Montreal Center
06:51PM 44.4333 -73.8667 173° South 370 426 24,100 1,800 Climbing Montreal Center
06:52PM 44.3500 -73.8667 180° South 360 414 26,000 1,860 Climbing Montreal Center
06:53PM 44.2500 -73.8500 173° South 350 403 27,900 1,740 Climbing Montreal Center
06:54PM 44.1500 -73.8500 180° South 340 391 29,500 1,020 Climbing Montreal Center
06:55PM 44.0500 -73.8500 180° South 350 403 30,000 240 Climbing Montreal Center
06:56PM 43.9500 -73.8500 180° South 370 426 30,000  Level Montreal Center
06:57PM 43.8500 -73.8333 173° South 380 437 30,000  Level Montreal Center
06:58PM 43.7333 -73.8333 180° South 380 437 30,000  Level Montreal Center
06:59PM 43.6333 -73.8167 173° South 380 437 30,000 -420 Level Montreal Center
07:00PM 43.5333 -73.8333 187° South 380 437 29,200 -1,080 Descending Montreal Center
07:01PM 43.4333 -73.8333 180° South 380 437 27,900 -1,980 Descending Montreal Center
07:02PM 43.3047 -73.8267 178° South 380 437 24,900 -1,800 Descending Boston Center
07:03PM 43.2028 -73.8214 178° South 380 437 24,000 -960 Descending Boston Center
07:04PM 43.1028 -73.8192 179° South 375 432 23,000 -540 Descending Boston Center
07:05PM 43.0006 -73.8142 178° South 370 426 23,000  Level Boston Center
07:06PM 42.9006 -73.8119 179° South 364 419 23,000 -60 Level Boston Center
07:07PM 42.8047 -73.8097 179° South 364 419 22,900  Descending Boston Center
07:08PM 42.7194 -73.7994 175° South 340 391 23,000 -480 Climbing Boston Center
07:09PM 42.6300 -73.7806 171° South 329 379 22,000 -1,020 Descending Boston Center
07:10PM 42.5447 -73.7644 172° South 329 379 21,000 -540 Descending Boston Center
07:11PM 42.4594 -73.7458 171° South 324 373 21,000  Level Boston Center
07:12PM 42.3744 -73.7300 172° South 319 367 21,000 -300 Level Boston Center
07:13PM 42.2892 -73.7114 171° South 313 360 20,500 -1,020 Descending Boston Center
07:14PM 42.2058 -73.6931 171° South 313 360 19,000 -1,320 Descending Boston Center
07:15PM 42.1186 -73.6744 171° South 318 366 17,900 -1,020 Descending Boston Center
07:17PM 42.0125 -73.6500 170° South 318 366 16,800 -900 Descending Boston Center
07:18PM 41.9378 -73.6344 171° South 318 366 16,000 -420 Descending Boston Center
07:19PM 41.8442 -73.6189 173° South 306 352 16,000  Level Boston Center
07:20PM 41.7711 -73.6286 186° South 301 346 16,000  Level Boston Center
07:21PM 41.7158 -73.7139 229° Southwest 280 322 16,000  Level Boston Center
07:22PM 41.6550 -73.7597 209° Southwest 280 322 16,000  Level Boston Center
07:23PM 41.5753 -73.8053 203° Southwest 285 328 16,000 -660 Level Boston Center
07:24PM 41.5058 -73.8456 203° Southwest 295 339 14,700 -1,560 Descending Boston Center
07:25PM 41.4261 -73.8881 202° Southwest 295 339 12,900 -1,380 Descending Boston Center
07:26PM 41.4169 -73.9542 260° West 187 215 12,000 -660 Descending Boston Center
07:26PM 41.4667 -73.9833 336° Northwest 286 329 11,900 -1,020 Descending New York TRACON
07:27PM 41.5000 -73.9000 62° Northeast 317 365 10,400 -1,440 Descending New York TRACON
07:28PM 41.4333 -73.8500 151° Southeast 272 313 9,100 -1,260 Descending New York TRACON
07:29PM 41.3667 -73.8167 159° South 268 308 7,900 -1,560 Descending New York TRACON
07:30PM 41.3000 -73.7667 151° Southeast 259 298 6,000 -1,800 Descending New York TRACON
07:31PM 41.2500 -73.7000 135° Southeast 261 300 4,400 -960 Descending New York TRACON
07:32PM 41.1667 -73.6500 156° South 259 298 4,100 -180 Descending New York TRACON
07:33PM 41.1000 -73.6500 180° South 252 290 4,100  Level New York TRACON
07:34PM 41.0333 -73.6667 191° South 251 289 4,100 -120 Level New York TRACON
07:35PM 40.9833 -73.7167 217° Southwest 247 284 3,900 -540 Descending New York TRACON
07:36PM 40.9333 -73.7500 207° Southwest 232 267 3,100 -900 Descending New York TRACON
07:37PM 40.8667 -73.8000 210° Southwest 197 227 2,100 -900 Descending New York TRACON
07:38PM 40.8333 -73.8333 217° Southwest 149 171 1,300 -840 Descending New York TRACON
07:40PM 40.7772 -73.8726 180° South  Level Estimated
07:47PM 40.7772 -73.8726 180° South  Level Estimated